This demonstration page uses our WeatherBlox Daily Observations layout. Learn more.

Left ArrowRight Arrow

Hourly Observations for July 7, 2022

Temp ( °F °C ) Dew Point ( °F °C ) Humidity (%) Winds ( mph kmh ) Pressure ( in mb ) Visibility ( mi km ) Precip ( " mm )
12:53 am 00:53 Mostly Clear 54 12.2 49 9.4 83 83 ESE 3 6 30.00 1016 10 16 0.00 0.00
1:53 am 01:53 Clear 52 11.1 48 8.9 86 86 Calm 30.01 1016 10 16 0.00 0.00
2:53 am 02:53 Partly Cloudy 51 10.6 46 7.8 83 83 Calm 30.03 1017 10 16 0.00 0.00
3:53 am 03:53 Clear 49 9.4 45 7.2 86 86 Calm 30.04 1017 10 16 0.00 0.00
4:53 am 04:53 Clear 48 8.9 44 6.7 86 86 SSE 3 6 30.05 1018 10 16 0.00 0.00
5:53 am 05:53 Sunny 47 8.3 43 6.1 86 86 Calm 30.08 1019 10 16 0.00 0.00
6:53 am 06:53 Sunny 54 12.2 48 8.9 80 80 W 5 7 30.07 1018 10 16 0.00 0.00
7:53 am 07:53 Sunny 62 16.7 50 10 65 65 VRB 3 6 30.09 1019 10 16 0.00 0.00
8:53 am 08:53 Sunny 69 20.6 50 10 51 51 NE 7 11 30.06 1018 10 16 0.00 0.00
9:53 am 09:53 Sunny 74 23.3 52 11.1 46 46 NE 7 11 30.06 1018 10 16 0.00 0.00
10:53 am 10:53 Sunny 78 25.6 47 8.3 33 33 N 6 9 30.05 1018 10 16 0.00 0.00
11:53 am 11:53 Sunny 83 28.3 46 7.8 27 27 NW 9 15 30.03 1017 10 16 0.00 0.00
12:53 pm 12:53 Sunny 83 28.3 43 6.1 24 24 WNW 10 17 30.02 1017 10 16 0.00 0.00
1:53 pm 13:53 Sunny 87 30.6 43 6.1 21 21 N 9 15 29.99 1016 10 16 0.00 0.00
2:53 pm 14:53 Mostly Sunny 87 30.6 37 2.8 17 17 VRB 3 6 29.99 1016 10 16 0.00 0.00
3:53 pm 15:53 Partly Cloudy 89 31.7 38 3.3 16 16 NNE 5 7 29.98 1015 10 16 0.00 0.00
4:53 pm 16:53 Mostly Sunny 82 27.8 48 8.9 31 31 S 14 22 30.01 1016 10 16 0.00 0.00
5:53 pm 17:53 Sunny 81 27.2 47 8.3 30 30 S 15 24 30.01 1016 10 16 0.00 0.00
6:53 pm 18:53 Sunny 80 26.7 44 6.7 28 28 SW 8 13 30.00 1016 10 16 0.00 0.00
7:53 pm 19:53 Sunny 76 24.4 45 7.2 33 33 SSW 7 11 29.99 1016 10 16 0.00 0.00
8:53 pm 20:53 Clear 67 19.4 45 7.2 45 45 S 5 7 30.00 1016 10 16 0.00 0.00
9:53 pm 21:53 Clear 63 17.2 46 7.8 54 54 Calm 30.03 1017 10 16 0.00 0.00
10:53 pm 22:53 Clear 63 17.2 43 6.1 48 48 E 5 7 30.03 1017 10 16 0.00 0.00
11:53 pm 23:53 Clear 57 13.9 47 8.3 69 69 ESE 3 6 30.04 1017 10 16 0.00 0.00

Powered by AerisWeather